Weather History for Mineral Wells, TX

Change the Weather History Date:

Monday, August 19, 2013

  Actual Average Record
Temperature  
Mean Temperature 80 °F -  
Max Temperature 93 °F 93 °F 106 °F (2011)
Min Temperature 68 °F 71 °F 66 °F (2012)
Cooling Degree Days 16    
Growing Degree Days 30 (Base 50)    
Moisture  
Dew Point 60 °F    
Average Humidity 53    
Maximum Humidity 78    
Minimum Humidity 30    
Precipitation  
Precipitation 0.00 in - - ()
Sea Level Pressure  
Sea Level Pressure 29.98 in    
Wind  
Wind Speed 7 mph (SE)    
Max Wind Speed 30 mph    
Max Gust Speed 53 mph    
Visibility 10 miles    
Events      
Averages and records for this station are not official NWS values.
T = Trace of Precipitation, MM = Missing Value Source: NWS Daily Summary

Daily Weather History Graph

Daily Weather History Graph

Search for Another Location

Airport:

Trip Planner

Search our weather history database for the weather conditions in past years. The results will help you decide how hot, cold, wet, or windy it might be!

Date:

Astronomy

Aug. 19, 2013 Rise Set
Actual Time 6:58 AM CDT 8:12 PM CDT
Civil Twilight 6:32 AM CDT 8:38 PM CDT
Nautical Twilight 6:02 AM CDT 9:08 PM CDT
Astronomical Twilight 5:30 AM CDT 9:40 PM CDT
Moon 7:04 PM CDT (8/19) 5:21 AM CDT (8/19)
Length of Visible Light 14h 05m
Length of Day
13h 13m
Waxing Gibbous, 97% of the Moon is Illuminated
Aug 19
Waxing Gibbous
Aug 20
Full
Aug 28
Last Quarter
Sep 5
New
Sep 12
First Quarter

Hourly Weather History & Observations

Time (CDT) Temp. Heat Index Dew Point Humidity Pressure Visibility Wind Dir Wind Speed Gust Speed Precip Events Conditions
12:53 AM 73.9 °F - 60.1 °F 62% 30.00 in 10.0 mi SE 3.5 mph - N/A   Clear
1:53 AM 72.0 °F - 63.0 °F 73% 29.99 in 10.0 mi ESE 4.6 mph - N/A   Clear
2:53 AM 71.1 °F - 61.0 °F 70% 29.98 in 10.0 mi SE 4.6 mph - N/A   Clear
3:53 AM 71.1 °F - 60.1 °F 68% 29.97 in 10.0 mi SSE 5.8 mph - N/A   Clear
4:53 AM 70.0 °F - 59.0 °F 68% 29.98 in 10.0 mi SSE 4.6 mph - N/A   Clear
5:53 AM 68.0 °F - 61.0 °F 78% 29.99 in 10.0 mi Calm Calm - N/A   Clear
6:53 AM 69.1 °F - 60.1 °F 73% 30.00 in 10.0 mi East 3.5 mph - N/A   Partly Cloudy
7:53 AM 70.0 °F - 61.0 °F 73% 30.01 in 10.0 mi North - - N/A   Partly Cloudy
8:53 AM 73.0 °F - 62.1 °F 68% 30.03 in 10.0 mi SE 8.1 mph - N/A   Partly Cloudy
9:53 AM 78.1 °F - 62.1 °F 58% 30.04 in 10.0 mi Variable 3.5 mph - N/A   Scattered Clouds
10:07 AM 78.8 °F - 62.6 °F 57% 30.07 in 10.0 mi North 23.0 mph 52.9 mph N/A   Squalls
10:53 AM 82.0 °F 83.1 °F 63.0 °F 52% 30.04 in 10.0 mi WSW 29.9 mph 48.3 mph N/A   Squalls
11:30 AM 84.2 °F 84.4 °F 60.8 °F 45% 30.08 in 10.0 mi South 18.4 mph 33.4 mph N/A   Squalls
11:53 AM 87.1 °F 86.7 °F 60.1 °F 40% 30.03 in 10.0 mi SE 9.2 mph - N/A   Scattered Clouds
12:53 PM 89.1 °F 87.7 °F 57.0 °F 34% 30.01 in 10.0 mi ESE 11.5 mph - 0.00 in   Clear
1:53 PM - - - N/A% 30.03 in 10.0 mi SSE 9.2 mph - N/A   Clear
2:53 PM 91.9 °F 90.6 °F 57.0 °F 31% 29.96 in 10.0 mi SSE 8.1 mph - N/A   Clear
3:53 PM 93.0 °F 91.7 °F 57.0 °F 30% 29.93 in - SSE 4.6 mph - N/A   Clear
4:53 PM 91.9 °F 90.6 °F 57.0 °F 31% 29.91 in 10.0 mi SSE 8.1 mph - N/A   Clear
5:53 PM 91.9 °F 90.8 °F 57.9 °F 32% 29.91 in 10.0 mi South 8.1 mph - N/A   Clear
6:53 PM 91.0 °F 90.5 °F 60.1 °F 35% 29.90 in 10.0 mi North - - N/A   Clear
7:53 PM 87.1 °F 86.5 °F 59.0 °F 39% 29.90 in 10.0 mi East 8.1 mph - N/A   Clear
8:53 PM 82.9 °F 83.2 °F 60.1 °F 46% 29.91 in 10.0 mi East 5.8 mph - N/A   Clear
9:53 PM 81.0 °F 81.6 °F 60.1 °F 49% 29.93 in 10.0 mi East 6.9 mph - N/A   Clear
10:53 PM 80.1 °F 80.7 °F 59.0 °F 48% 29.94 in 10.0 mi East 6.9 mph - N/A   Clear
11:53 PM 77.0 °F - 60.1 °F 56% 29.94 in 10.0 mi SE 5.8 mph - N/A   Clear